Вернуться в каталог

OSCAR 23

KITSAT 1

АктивенЛюбительское радиоLEO
NORAD 22077·PAYLOAD·🇰🇷 South Korea

Запущен Aug 10, 1992 с Guiana Space Centre

Loading…

Ближайшие Пролёты (ближайшие 24 часа)

TLE

СвежийSource: Space-Track

Эпоха: Sep 14, 2026, 12:53 UTC

1 22077U 92052B   26257.53735554 -.00000061  00000-0  52398-5 0  9995
2 22077  66.0830  93.9234 0015526 261.5075 114.9403 12.86615179601182

Отслеживайте OSCAR 23 в реальном времени с AllMySat

Download on the App Store